Year,Month,Day,Hour,Minute,Value (Times are PST for temperature in C)
2011,03,28,00,02,7.20
2011,03,28,00,03,7.10
2011,03,28,00,05,7.10
2011,03,28,00,06,7.10
2011,03,28,00,07,7.00
2011,03,28,00,08,7.00
2011,03,28,00,10,7.00
2011,03,28,00,11,6.90
2011,03,28,00,13,6.90
2011,03,28,00,14,6.90
2011,03,28,00,15,6.90
2011,03,28,00,17,6.90
2011,03,28,00,18,6.90
2011,03,28,00,19,6.90
2011,03,28,00,20,6.90
2011,03,28,00,22,6.90
2011,03,28,00,23,6.80
2011,03,28,00,24,6.80
2011,03,28,00,25,6.80
2011,03,28,00,27,6.80
2011,03,28,00,28,6.80
2011,03,28,00,29,6.80
2011,03,28,00,30,6.70
2011,03,28,00,32,6.70
2011,03,28,00,33,6.70
2011,03,28,00,34,6.70
2011,03,28,00,35,6.70
2011,03,28,00,37,6.70
2011,03,28,00,38,6.70
2011,03,28,00,39,6.70
2011,03,28,00,41,6.60
2011,03,28,00,42,6.60
2011,03,28,00,43,6.60
2011,03,28,00,44,6.60
2011,03,28,00,46,6.60
2011,03,28,00,47,6.60
2011,03,28,00,48,6.60
2011,03,28,00,49,6.60
2011,03,28,00,51,6.60
2011,03,28,00,52,6.60
2011,03,28,00,53,6.60
2011,03,28,00,54,6.60
2011,03,28,00,56,6.60
2011,03,28,00,57,6.60
2011,03,28,00,58,6.60
2011,03,28,00,59,6.60
2011,03,28,01,00,6.60
2011,03,28,01,02,6.60
2011,03,28,01,03,6.50
2011,03,28,01,04,6.50
2011,03,28,01,05,6.50
2011,03,28,01,07,6.50
2011,03,28,01,08,6.40
2011,03,28,01,09,6.40
2011,03,28,01,11,6.40
2011,03,28,01,12,6.40
2011,03,28,01,13,6.40
2011,03,28,01,14,6.40
2011,03,28,01,16,6.40
2011,03,28,01,17,6.40
2011,03,28,01,18,6.40
2011,03,28,01,20,6.50
2011,03,28,01,21,6.50
2011,03,28,01,22,6.50
2011,03,28,01,23,6.50
2011,03,28,01,24,6.50
2011,03,28,01,26,6.50
2011,03,28,01,27,6.60
2011,03,28,01,28,6.50
2011,03,28,01,29,6.50
2011,03,28,01,30,6.50
2011,03,28,01,31,6.50
2011,03,28,01,32,6.50
2011,03,28,01,33,6.40
2011,03,28,01,35,6.40
2011,03,28,01,36,6.40
2011,03,28,01,37,6.40
2011,03,28,01,38,6.40
2011,03,28,01,40,6.40
2011,03,28,01,41,6.40
2011,03,28,01,42,6.40
2011,03,28,01,43,6.40
2011,03,28,01,45,6.40
2011,03,28,01,46,6.40
2011,03,28,01,47,6.40
2011,03,28,01,49,6.50
2011,03,28,01,50,6.50
2011,03,28,01,51,6.50
2011,03,28,01,53,6.60
2011,03,28,01,54,6.60
2011,03,28,01,55,6.60
2011,03,28,01,56,6.60
2011,03,28,01,58,6.50
2011,03,28,01,59,6.50
2011,03,28,02,00,6.40
2011,03,28,02,02,6.40
2011,03,28,02,03,6.40
2011,03,28,02,04,6.40
2011,03,28,02,05,6.40
2011,03,28,02,06,6.40
2011,03,28,02,07,6.40
2011,03,28,02,08,6.40
2011,03,28,02,09,6.40
2011,03,28,02,10,6.40
2011,03,28,02,11,6.40
2011,03,28,02,13,6.40
2011,03,28,02,14,6.40
2011,03,28,02,15,6.40
2011,03,28,02,16,6.40
2011,03,28,02,18,6.40
2011,03,28,02,19,6.40
2011,03,28,02,20,6.40
2011,03,28,02,21,6.30
2011,03,28,02,23,6.30
2011,03,28,02,24,6.30
2011,03,28,02,25,6.30
2011,03,28,02,26,6.30
2011,03,28,02,28,6.30
2011,03,28,02,29,6.30
2011,03,28,02,30,6.30
2011,03,28,02,31,6.30
2011,03,28,02,33,6.30
2011,03,28,02,34,6.30
2011,03,28,02,35,6.30
2011,03,28,02,36,6.30
2011,03,28,02,37,6.30
2011,03,28,02,38,6.30
2011,03,28,02,39,6.30
2011,03,28,02,40,6.30
2011,03,28,02,41,6.30
2011,03,28,02,43,6.30
2011,03,28,02,44,6.30
2011,03,28,02,45,6.30
2011,03,28,02,46,6.20
2011,03,28,02,47,6.20
2011,03,28,02,48,6.20
2011,03,28,02,49,6.10
2011,03,28,02,50,6.10
2011,03,28,02,51,6.10
2011,03,28,02,53,6.00
2011,03,28,02,54,5.90
2011,03,28,02,55,5.90
2011,03,28,02,57,5.90
2011,03,28,02,58,5.90
2011,03,28,02,59,5.90
2011,03,28,03,00,5.90
2011,03,28,03,01,5.90
2011,03,28,03,02,5.90
2011,03,28,03,03,5.90
2011,03,28,03,04,5.90
2011,03,28,03,05,5.90
2011,03,28,03,06,5.80
2011,03,28,03,07,5.80
2011,03,28,03,08,5.80
2011,03,28,03,09,5.80
2011,03,28,03,10,5.80
2011,03,28,03,11,5.80
2011,03,28,03,12,5.80
2011,03,28,03,13,5.80
2011,03,28,03,14,5.70
2011,03,28,03,15,5.70
2011,03,28,03,17,5.70
2011,03,28,03,18,5.70
2011,03,28,03,19,5.70
2011,03,28,03,20,5.70
2011,03,28,03,21,5.70
2011,03,28,03,22,5.70
2011,03,28,03,23,5.70
2011,03,28,03,24,5.70
2011,03,28,03,25,5.70
2011,03,28,03,26,5.70
2011,03,28,03,27,5.70
2011,03,28,03,28,5.70
2011,03,28,03,29,5.70
2011,03,28,03,30,5.70
2011,03,28,03,32,5.70
2011,03,28,03,33,5.70
2011,03,28,03,34,5.70
2011,03,28,03,35,5.70
2011,03,28,03,37,5.70
2011,03,28,03,38,5.70
2011,03,28,03,39,5.70
2011,03,28,03,41,5.70
2011,03,28,03,42,5.80
2011,03,28,03,43,5.80
2011,03,28,03,44,5.80
2011,03,28,03,46,5.90
2011,03,28,03,47,5.90
2011,03,28,03,48,5.90
2011,03,28,03,49,5.90
2011,03,28,03,50,5.90
2011,03,28,03,51,5.90
2011,03,28,03,52,5.90
2011,03,28,03,54,5.90
2011,03,28,03,55,5.90
2011,03,28,03,56,5.90
2011,03,28,03,57,5.90
2011,03,28,03,58,5.90
2011,03,28,04,00,5.90
2011,03,28,04,01,5.80
2011,03,28,04,02,5.80
2011,03,28,04,04,5.90
2011,03,28,04,05,5.90
2011,03,28,04,06,5.90
2011,03,28,04,07,5.90
2011,03,28,04,08,5.90
2011,03,28,04,10,5.90
2011,03,28,04,11,6.00
2011,03,28,04,12,6.10
2011,03,28,04,13,6.10
2011,03,28,04,15,6.10
2011,03,28,04,16,6.10
2011,03,28,04,17,6.10
2011,03,28,04,18,6.10
2011,03,28,04,19,6.20
2011,03,28,04,21,6.20
2011,03,28,04,22,6.20
2011,03,28,04,23,6.20
2011,03,28,04,24,6.20
2011,03,28,04,26,6.20
2011,03,28,04,27,6.30
2011,03,28,04,28,6.30
2011,03,28,04,29,6.30
2011,03,28,04,30,6.30
2011,03,28,04,31,6.30
2011,03,28,04,32,6.30
2011,03,28,04,33,6.30
2011,03,28,04,35,6.30
2011,03,28,04,36,6.30
2011,03,28,04,37,6.30
2011,03,28,04,38,6.30
2011,03,28,04,39,6.30
2011,03,28,04,40,6.30
2011,03,28,04,41,6.30
2011,03,28,04,42,6.30
2011,03,28,04,43,6.30
2011,03,28,04,44,6.20
2011,03,28,04,45,6.20
2011,03,28,04,46,6.20
2011,03,28,04,47,6.20
2011,03,28,04,49,6.20
2011,03,28,04,50,6.20
2011,03,28,04,51,6.20
2011,03,28,04,52,6.20
2011,03,28,04,53,6.20
2011,03,28,04,54,6.20
2011,03,28,04,55,6.20
2011,03,28,04,56,6.20
2011,03,28,04,57,6.20
2011,03,28,04,59,6.10
2011,03,28,05,00,6.10
2011,03,28,05,01,6.10
2011,03,28,05,02,6.10
2011,03,28,05,03,6.10
2011,03,28,05,04,6.10
2011,03,28,05,05,6.00
2011,03,28,05,06,6.00
2011,03,28,05,07,6.00
2011,03,28,05,08,6.00
2011,03,28,05,10,6.00
2011,03,28,05,11,5.90
2011,03,28,05,12,5.90
2011,03,28,05,13,5.90
2011,03,28,05,15,5.90
2011,03,28,05,16,5.90
2011,03,28,05,17,5.90
2011,03,28,05,18,5.90
2011,03,28,05,19,5.90
2011,03,28,05,20,5.80
2011,03,28,05,21,5.80
2011,03,28,05,22,5.80
2011,03,28,05,23,5.80
2011,03,28,05,24,5.80
2011,03,28,05,25,5.80
2011,03,28,05,26,5.90
2011,03,28,05,27,5.90
2011,03,28,05,28,5.90
2011,03,28,05,29,5.90
2011,03,28,05,30,5.90
2011,03,28,05,31,5.90
2011,03,28,05,32,5.90
2011,03,28,05,33,5.80
2011,03,28,05,35,5.80
2011,03,28,05,36,5.80
2011,03,28,05,37,5.80
2011,03,28,05,38,5.80
2011,03,28,05,40,5.80
2011,03,28,05,41,5.70
2011,03,28,05,42,5.70
2011,03,28,05,43,5.70
2011,03,28,05,44,5.70
2011,03,28,05,45,5.70
2011,03,28,05,46,5.70
2011,03,28,05,47,5.70
2011,03,28,05,48,5.70
2011,03,28,05,49,5.70
2011,03,28,05,50,5.70
2011,03,28,05,51,5.70
2011,03,28,05,53,5.70
2011,03,28,05,54,5.70
2011,03,28,05,55,5.70
2011,03,28,05,57,5.70
2011,03,28,05,58,5.60
2011,03,28,05,59,5.60
2011,03,28,06,00,5.60
2011,03,28,06,01,5.60
2011,03,28,06,02,5.60
2011,03,28,06,03,5.60
2011,03,28,06,04,5.60
2011,03,28,06,06,5.60
2011,03,28,06,07,5.50
2011,03,28,06,08,5.50
2011,03,28,06,09,5.40
2011,03,28,06,10,5.40
2011,03,28,06,11,5.40
2011,03,28,06,12,5.40
2011,03,28,06,13,5.40
2011,03,28,06,14,5.40
2011,03,28,06,15,5.40
2011,03,28,06,16,5.40
2011,03,28,06,17,5.40
2011,03,28,06,18,5.40
2011,03,28,06,19,5.40
2011,03,28,06,20,5.40
2011,03,28,06,21,5.40
2011,03,28,06,23,5.40
2011,03,28,06,24,5.40
2011,03,28,06,25,5.50
2011,03,28,06,26,5.60
2011,03,28,06,28,5.60
2011,03,28,06,29,5.60
2011,03,28,06,30,5.60
2011,03,28,06,32,5.60
2011,03,28,06,33,5.60
2011,03,28,06,34,5.70
2011,03,28,06,35,5.70
2011,03,28,06,36,5.70
2011,03,28,06,37,5.70
2011,03,28,06,39,5.70
2011,03,28,06,40,5.70
2011,03,28,06,41,5.70
2011,03,28,06,42,5.70
2011,03,28,06,44,5.70
2011,03,28,06,45,5.70
2011,03,28,06,46,5.70
2011,03,28,06,47,5.70
2011,03,28,06,49,5.60
2011,03,28,06,50,5.60
2011,03,28,06,51,5.60
2011,03,28,06,52,5.60
2011,03,28,06,54,5.70
2011,03,28,06,55,5.70
2011,03,28,06,56,5.70
2011,03,28,06,57,5.70
2011,03,28,06,59,5.70
2011,03,28,07,00,5.70
2011,03,28,07,01,5.70
2011,03,28,07,02,5.70
2011,03,28,07,03,5.70
2011,03,28,07,05,5.70
2011,03,28,07,06,5.70
2011,03,28,07,07,5.70
2011,03,28,07,08,5.80
2011,03,28,07,10,5.80
2011,03,28,07,11,5.80
2011,03,28,07,12,5.80
2011,03,28,07,13,5.80
2011,03,28,07,14,5.80
2011,03,28,07,16,5.80
2011,03,28,07,17,5.80
2011,03,28,07,18,5.90
2011,03,28,07,20,5.90
2011,03,28,07,21,5.90
2011,03,28,07,22,5.90
2011,03,28,07,23,5.90
2011,03,28,07,24,5.90
2011,03,28,07,26,5.90
2011,03,28,07,27,5.90
2011,03,28,07,28,5.90
2011,03,28,07,29,5.90
2011,03,28,07,30,5.90
2011,03,28,07,31,5.90
2011,03,28,07,32,5.90
2011,03,28,07,33,5.90
2011,03,28,07,35,5.90
2011,03,28,07,36,5.90
2011,03,28,07,37,5.90
2011,03,28,07,38,5.90
2011,03,28,07,39,5.90
2011,03,28,07,40,5.90
2011,03,28,07,41,5.90
2011,03,28,07,42,5.90
2011,03,28,07,43,5.90
2011,03,28,07,45,6.00
2011,03,28,07,46,6.00
2011,03,28,07,47,6.00
2011,03,28,07,48,6.00
2011,03,28,07,50,6.00
2011,03,28,07,51,6.00
2011,03,28,07,52,6.00
2011,03,28,07,53,6.00
2011,03,28,07,54,6.00
2011,03,28,07,55,6.00
2011,03,28,07,56,6.00
2011,03,28,07,57,6.10
2011,03,28,07,58,6.00
2011,03,28,07,59,6.10
2011,03,28,08,00,6.10
2011,03,28,08,01,6.10
2011,03,28,08,02,6.10
2011,03,28,08,03,6.10
2011,03,28,08,05,6.10
2011,03,28,08,06,6.10
2011,03,28,08,07,6.10
2011,03,28,08,08,6.10
2011,03,28,08,09,6.10
2011,03,28,08,11,6.10
2011,03,28,08,12,6.10
2011,03,28,08,13,6.10
2011,03,28,08,14,6.20
2011,03,28,08,16,6.20
2011,03,28,08,17,6.20
2011,03,28,08,18,6.20
2011,03,28,08,19,6.20
2011,03,28,08,20,6.20
2011,03,28,08,21,6.20
2011,03,28,08,22,6.30
2011,03,28,08,23,6.30
2011,03,28,08,24,6.30
2011,03,28,08,26,6.30
2011,03,28,08,27,6.30
2011,03,28,08,28,6.30
2011,03,28,08,29,6.30
2011,03,28,08,30,6.30
2011,03,28,08,32,6.30
2011,03,28,08,33,6.30
2011,03,28,08,34,6.30
2011,03,28,08,35,6.30
2011,03,28,08,37,6.30
2011,03,28,08,38,6.30
2011,03,28,08,39,6.30
2011,03,28,08,40,6.30
2011,03,28,08,42,6.30
2011,03,28,08,43,6.30
2011,03,28,08,44,6.30
2011,03,28,08,46,6.30
2011,03,28,08,47,6.30
2011,03,28,08,48,6.30
2011,03,28,08,49,6.30
2011,03,28,08,50,6.30
2011,03,28,08,52,6.30
2011,03,28,08,53,6.30
2011,03,28,08,54,6.30
2011,03,28,08,55,6.30
2011,03,28,08,56,6.30
2011,03,28,08,57,6.30
2011,03,28,08,58,6.30
2011,03,28,08,59,6.30
2011,03,28,09,00,6.30
2011,03,28,09,01,6.30
2011,03,28,09,02,6.30
2011,03,28,09,03,6.30
2011,03,28,09,04,6.30
2011,03,28,09,06,6.30
2011,03,28,09,07,6.40
2011,03,28,09,08,6.40
2011,03,28,09,09,6.40
2011,03,28,09,10,6.40
2011,03,28,09,11,6.50
2011,03,28,09,12,6.50
2011,03,28,09,14,6.50
2011,03,28,09,15,6.60
2011,03,28,09,16,6.60
2011,03,28,09,17,6.60
2011,03,28,09,19,6.60
2011,03,28,09,20,6.60
2011,03,28,09,21,6.60
2011,03,28,09,22,6.60
2011,03,28,09,23,6.60
2011,03,28,09,24,6.60
2011,03,28,09,25,6.60
2011,03,28,09,26,6.70
2011,03,28,09,27,6.70
2011,03,28,09,28,6.80
2011,03,28,09,29,6.80
2011,03,28,09,30,6.80
2011,03,28,09,31,6.70
2011,03,28,09,32,6.70
2011,03,28,09,34,6.70
2011,03,28,09,35,6.60
2011,03,28,09,36,6.60
2011,03,28,09,38,6.50
2011,03,28,09,39,6.50
2011,03,28,09,40,6.50
2011,03,28,09,41,6.60
2011,03,28,09,43,6.50
2011,03,28,09,44,6.40
2011,03,28,09,45,6.40
2011,03,28,09,46,6.40
2011,03,28,09,48,6.50
2011,03,28,09,49,6.60
2011,03,28,09,50,6.70
2011,03,28,09,51,6.80
2011,03,28,09,52,6.90
2011,03,28,09,54,7.00
2011,03,28,09,55,7.20
2011,03,28,09,56,7.20
2011,03,28,09,57,7.20
2011,03,28,09,59,7.20
2011,03,28,10,00,7.20
2011,03,28,10,01,7.30
2011,03,28,10,02,7.30
2011,03,28,10,04,7.30
2011,03,28,10,05,7.30
2011,03,28,10,06,7.30
2011,03,28,10,07,7.20
2011,03,28,10,09,7.20
2011,03,28,10,10,7.20
2011,03,28,10,11,7.20
2011,03,28,10,12,7.10
2011,03,28,10,13,7.10
2011,03,28,10,14,7.10
2011,03,28,10,15,7.10
2011,03,28,10,16,7.20
2011,03,28,10,17,7.20
2011,03,28,10,18,7.20
2011,03,28,10,20,7.20
2011,03,28,10,21,7.20
2011,03,28,10,22,7.20
2011,03,28,10,24,7.30
2011,03,28,10,25,7.30
2011,03,28,10,26,7.30
2011,03,28,10,27,7.30
2011,03,28,10,29,7.30
2011,03,28,10,30,7.30
2011,03,28,10,31,7.30
2011,03,28,10,33,7.30
2011,03,28,10,34,7.30
2011,03,28,10,35,7.40
2011,03,28,10,36,7.40
2011,03,28,10,37,7.50
2011,03,28,10,39,7.40
2011,03,28,10,40,7.40
2011,03,28,10,41,7.40
2011,03,28,10,42,7.40
2011,03,28,10,44,7.40
2011,03,28,10,45,7.40
2011,03,28,10,46,7.40
2011,03,28,10,47,7.40
2011,03,28,10,49,7.50
2011,03,28,10,50,7.60
2011,03,28,10,51,7.80
2011,03,28,10,52,7.90
2011,03,28,10,53,8.10
2011,03,28,10,55,8.20
2011,03,28,10,56,8.30
2011,03,28,10,57,8.30
2011,03,28,10,58,8.20
2011,03,28,11,00,8.20
2011,03,28,11,01,8.20
2011,03,28,11,02,8.30
2011,03,28,11,03,8.30
2011,03,28,11,05,8.30
2011,03,28,11,06,8.30
2011,03,28,11,07,8.30
2011,03,28,11,08,8.30
2011,03,28,11,10,8.40
2011,03,28,11,11,8.50
2011,03,28,11,12,8.60
2011,03,28,11,14,8.60
2011,03,28,11,15,8.60
2011,03,28,11,16,8.60
2011,03,28,11,17,8.60
2011,03,28,11,19,8.60
2011,03,28,11,20,8.70
2011,03,28,11,21,8.80
2011,03,28,11,23,8.80
2011,03,28,11,24,8.80
2011,03,28,11,25,8.80
2011,03,28,11,26,8.80
2011,03,28,11,28,8.90
2011,03,28,11,29,8.90
2011,03,28,11,30,8.90
2011,03,28,11,31,8.90
2011,03,28,11,33,8.90
2011,03,28,11,34,8.90
2011,03,28,11,35,8.90
2011,03,28,11,36,8.90
2011,03,28,11,37,9.10
2011,03,28,11,39,9.10
2011,03,28,11,40,9.10
2011,03,28,11,41,9.20
2011,03,28,11,42,9.10
2011,03,28,11,43,9.00
2011,03,28,11,44,8.90
2011,03,28,11,45,8.90
2011,03,28,11,46,8.90
2011,03,28,11,47,8.80
2011,03,28,11,49,8.80
2011,03,28,11,50,8.70
2011,03,28,11,51,8.70
2011,03,28,11,52,8.70
2011,03,28,11,54,8.70
2011,03,28,11,55,8.60
2011,03,28,11,56,8.60
2011,03,28,11,57,8.50
2011,03,28,11,59,8.60
2011,03,28,12,00,8.60
2011,03,28,12,01,8.70
2011,03,28,12,02,8.60
2011,03,28,12,04,8.60
2011,03,28,12,05,8.70
2011,03,28,12,06,8.80
2011,03,28,12,07,8.80
2011,03,28,12,08,8.80
2011,03,28,12,10,8.90
2011,03,28,12,11,8.90
2011,03,28,12,12,8.90
2011,03,28,12,13,8.90
2011,03,28,12,14,9.00
2011,03,28,12,15,9.10
2011,03,28,12,16,9.10
2011,03,28,12,17,9.20
2011,03,28,12,19,9.30
2011,03,28,12,20,9.40
2011,03,28,12,21,9.50
2011,03,28,12,22,9.50
2011,03,28,12,24,9.40
2011,03,28,12,25,9.40
2011,03,28,12,26,9.50
2011,03,28,12,27,9.40
2011,03,28,12,28,9.30
2011,03,28,12,30,9.30
2011,03,28,12,31,9.30
2011,03,28,12,32,9.40
2011,03,28,12,34,9.30
2011,03,28,12,35,9.40
2011,03,28,12,36,9.50
2011,03,28,12,37,9.60
2011,03,28,12,38,9.70
2011,03,28,12,39,9.70
2011,03,28,12,40,9.80
2011,03,28,12,41,9.80
2011,03,28,12,42,9.70
2011,03,28,12,43,9.70
2011,03,28,12,44,9.60
2011,03,28,12,45,9.60
2011,03,28,12,46,9.60
2011,03,28,12,47,9.60
2011,03,28,12,48,9.60
2011,03,28,12,49,9.60
2011,03,28,12,50,9.70
2011,03,28,12,51,9.70
2011,03,28,12,52,9.80
2011,03,28,12,53,9.80
2011,03,28,12,54,9.80
2011,03,28,12,55,9.80
2011,03,28,12,56,9.80
2011,03,28,12,57,9.80
2011,03,28,12,58,9.90
2011,03,28,12,59,9.90
2011,03,28,13,00,9.90
2011,03,28,13,01,9.80
2011,03,28,13,03,9.80
2011,03,28,13,04,9.70
2011,03,28,13,05,9.60
2011,03,28,13,06,9.60
2011,03,28,13,08,9.60
2011,03,28,13,09,9.70
2011,03,28,13,10,9.70
2011,03,28,13,11,9.70
2011,03,28,13,12,9.70
2011,03,28,13,13,9.70
2011,03,28,13,14,9.70
2011,03,28,13,15,9.70
2011,03,28,13,16,9.70
2011,03,28,13,17,9.80
2011,03,28,13,19,9.70
2011,03,28,13,20,9.80
2011,03,28,13,21,9.80
2011,03,28,13,22,9.90
2011,03,28,13,23,9.90
2011,03,28,13,25,9.90
2011,03,28,13,26,10.00
2011,03,28,13,27,10.10
2011,03,28,13,28,10.20
2011,03,28,13,29,10.30
2011,03,28,13,30,10.40
2011,03,28,13,31,10.50
2011,03,28,13,32,10.70
2011,03,28,13,33,10.80
2011,03,28,13,34,10.90
2011,03,28,13,35,10.90
2011,03,28,13,36,10.90
2011,03,28,13,37,10.90
2011,03,28,13,38,10.90
2011,03,28,13,39,10.90
2011,03,28,13,40,10.90
2011,03,28,13,41,10.90
2011,03,28,13,42,10.90
2011,03,28,13,43,10.90
2011,03,28,13,44,10.80
2011,03,28,13,46,10.70
2011,03,28,13,47,10.40
2011,03,28,13,48,10.40
2011,03,28,13,49,10.40
2011,03,28,13,50,10.40
2011,03,28,13,51,10.40
2011,03,28,13,52,10.30
2011,03,28,13,53,10.30
2011,03,28,13,55,10.40
2011,03,28,13,56,10.50
2011,03,28,13,57,10.60
2011,03,28,13,58,10.70
2011,03,28,13,59,10.80
2011,03,28,14,00,10.80
2011,03,28,14,01,10.90
2011,03,28,14,02,10.90
2011,03,28,14,04,10.90
2011,03,28,14,05,10.80
2011,03,28,14,06,10.70
2011,03,28,14,07,10.60
2011,03,28,14,09,10.50
2011,03,28,14,10,10.40
2011,03,28,14,11,10.40
2011,03,28,14,12,10.30
2011,03,28,14,13,10.30
2011,03,28,14,14,10.30
2011,03,28,14,15,10.30
2011,03,28,14,16,10.30
2011,03,28,14,17,10.30
2011,03,28,14,18,10.30
2011,03,28,14,20,10.30
2011,03,28,14,21,10.30
2011,03,28,14,22,10.30
2011,03,28,14,23,10.30
2011,03,28,14,24,10.30
2011,03,28,14,25,10.20
2011,03,28,14,26,10.20
2011,03,28,14,27,10.20
2011,03,28,14,29,10.20
2011,03,28,14,30,10.20
2011,03,28,14,31,10.20
2011,03,28,14,32,10.30
2011,03,28,14,34,10.30
2011,03,28,14,35,10.30
2011,03,28,14,36,10.30
2011,03,28,14,37,10.30
2011,03,28,14,39,10.30
2011,03,28,14,40,10.30
2011,03,28,14,41,10.30
2011,03,28,14,42,10.30
2011,03,28,14,43,10.30
2011,03,28,14,45,10.40
2011,03,28,14,46,10.40
2011,03,28,14,47,10.30
2011,03,28,14,48,10.30
2011,03,28,14,49,10.30
2011,03,28,14,51,10.30
2011,03,28,14,52,10.40
2011,03,28,14,53,10.40
2011,03,28,14,54,10.60
2011,03,28,14,55,10.70
2011,03,28,14,57,10.80
2011,03,28,14,58,10.90
2011,03,28,14,59,11.00
2011,03,28,15,00,11.00
2011,03,28,15,01,11.10
2011,03,28,15,03,11.10
2011,03,28,15,04,11.10
2011,03,28,15,05,11.00
2011,03,28,15,06,10.90
2011,03,28,15,08,10.90
2011,03,28,15,09,10.90
2011,03,28,15,10,10.80
2011,03,28,15,11,10.90
2011,03,28,15,12,10.90
2011,03,28,15,14,10.90
2011,03,28,15,15,10.80
2011,03,28,15,16,10.80
2011,03,28,15,18,10.70
2011,03,28,15,19,10.70
2011,03,28,15,20,10.70
2011,03,28,15,21,10.60
2011,03,28,15,22,10.60
2011,03,28,15,24,10.40
2011,03,28,15,25,10.40
2011,03,28,15,26,10.40
2011,03,28,15,27,10.40
2011,03,28,15,29,10.30
2011,03,28,15,30,10.30
2011,03,28,15,31,10.40
2011,03,28,15,32,10.40
2011,03,28,15,33,10.40
2011,03,28,15,34,10.40
2011,03,28,15,35,10.40
2011,03,28,15,36,10.50
2011,03,28,15,37,10.50
2011,03,28,15,38,10.60
2011,03,28,15,39,10.60
2011,03,28,15,40,10.60
2011,03,28,15,41,10.60
2011,03,28,15,42,10.70
2011,03,28,15,43,10.70
2011,03,28,15,44,10.80
2011,03,28,15,45,10.90
2011,03,28,15,46,10.90
2011,03,28,15,47,11.00
2011,03,28,15,48,11.10
2011,03,28,15,49,11.10
2011,03,28,15,50,11.00
2011,03,28,15,51,10.90
2011,03,28,15,52,10.90
2011,03,28,15,53,10.80
2011,03,28,15,54,10.80
2011,03,28,15,56,10.70
2011,03,28,15,57,10.70
2011,03,28,15,58,10.70
2011,03,28,16,00,10.70
2011,03,28,16,01,10.60
2011,03,28,16,02,10.60
2011,03,28,16,03,10.60
2011,03,28,16,04,10.60
2011,03,28,16,05,10.60
2011,03,28,16,06,10.60
2011,03,28,16,07,10.60
2011,03,28,16,08,10.70
2011,03,28,16,09,10.70
2011,03,28,16,10,10.70
2011,03,28,16,11,10.80
2011,03,28,16,12,10.80
2011,03,28,16,13,10.80
2011,03,28,16,14,10.90
2011,03,28,16,15,10.90
2011,03,28,16,16,10.90
2011,03,28,16,17,10.90
2011,03,28,16,18,10.90
2011,03,28,16,19,10.90
2011,03,28,16,20,10.90
2011,03,28,16,21,10.90
2011,03,28,16,22,10.90
2011,03,28,16,23,10.90
2011,03,28,16,24,11.00
2011,03,28,16,25,11.00
2011,03,28,16,26,11.10
2011,03,28,16,27,11.10
2011,03,28,16,28,11.10
2011,03,28,16,29,11.10
2011,03,28,16,30,11.10
2011,03,28,16,31,11.20
2011,03,28,16,33,11.20
2011,03,28,16,34,11.10
2011,03,28,16,35,11.10
2011,03,28,16,36,11.10
2011,03,28,16,38,11.10
2011,03,28,16,39,11.10
2011,03,28,16,40,11.10
2011,03,28,16,41,11.00
2011,03,28,16,42,11.00
2011,03,28,16,43,11.00
2011,03,28,16,44,10.90
2011,03,28,16,45,10.90
2011,03,28,16,46,10.90
2011,03,28,16,47,10.80
2011,03,28,16,49,10.80
2011,03,28,16,50,10.80
2011,03,28,16,51,10.80
2011,03,28,16,52,10.80
2011,03,28,16,53,10.80
2011,03,28,16,54,10.80
2011,03,28,16,55,10.70
2011,03,28,16,56,10.70
2011,03,28,16,58,10.70
2011,03,28,16,59,10.70
2011,03,28,17,00,10.80
2011,03,28,17,01,10.80
2011,03,28,17,02,10.80
2011,03,28,17,03,10.80
2011,03,28,17,04,10.80
2011,03,28,17,05,10.80
2011,03,28,17,06,10.80
2011,03,28,17,07,10.80
2011,03,28,17,08,10.70
2011,03,28,17,09,10.80
2011,03,28,17,10,10.80
2011,03,28,17,11,10.80
2011,03,28,17,12,10.80
2011,03,28,17,13,10.80
2011,03,28,17,14,10.80
2011,03,28,17,15,10.80
2011,03,28,17,16,10.80
2011,03,28,17,17,10.80
2011,03,28,17,18,10.80
2011,03,28,17,19,10.70
2011,03,28,17,20,10.70
2011,03,28,17,21,10.70
2011,03,28,17,22,10.70
2011,03,28,17,23,10.70
2011,03,28,17,24,10.70
2011,03,28,17,25,10.80
2011,03,28,17,26,10.80
2011,03,28,17,27,10.80
2011,03,28,17,28,10.80
2011,03,28,17,29,10.90
2011,03,28,17,30,10.90
2011,03,28,17,32,10.90
2011,03,28,17,33,10.90
2011,03,28,17,34,10.90
2011,03,28,17,35,10.80
2011,03,28,17,37,10.80
2011,03,28,17,38,10.80
2011,03,28,17,39,10.80
2011,03,28,17,40,10.80
2011,03,28,17,41,10.80
2011,03,28,17,43,10.80
2011,03,28,17,44,10.90
2011,03,28,17,45,10.90
2011,03,28,17,46,10.90
2011,03,28,17,47,10.90
2011,03,28,17,48,10.90
2011,03,28,17,49,10.90
2011,03,28,17,50,10.90
2011,03,28,17,52,10.90
2011,03,28,17,53,10.90
2011,03,28,17,54,10.90
2011,03,28,17,55,10.90
2011,03,28,17,56,10.90
2011,03,28,17,57,10.90
2011,03,28,17,58,10.90
2011,03,28,17,59,10.90
2011,03,28,18,00,10.90
2011,03,28,18,01,10.90
2011,03,28,18,02,10.90
2011,03,28,18,03,10.90
2011,03,28,18,04,10.90
2011,03,28,18,05,10.90
2011,03,28,18,06,10.90
2011,03,28,18,07,10.90
2011,03,28,18,08,10.90
2011,03,28,18,09,10.90
2011,03,28,18,10,10.90
2011,03,28,18,11,10.90
2011,03,28,18,12,10.90
2011,03,28,18,13,10.90
2011,03,28,18,14,10.90
2011,03,28,18,15,10.90
2011,03,28,18,16,10.80
2011,03,28,18,17,10.80
2011,03,28,18,18,10.80
2011,03,28,18,19,10.80
2011,03,28,18,20,10.80
2011,03,28,18,21,10.80
2011,03,28,18,23,10.80
2011,03,28,18,24,10.70
2011,03,28,18,25,10.70
2011,03,28,18,26,10.70
2011,03,28,18,28,10.70
2011,03,28,18,29,10.60
2011,03,28,18,30,10.60
2011,03,28,18,31,10.60
2011,03,28,18,32,10.50
2011,03,28,18,33,10.50
2011,03,28,18,34,10.40
2011,03,28,18,35,10.40
2011,03,28,18,36,10.30
2011,03,28,18,37,10.30
2011,03,28,18,38,10.30
2011,03,28,18,39,10.30
2011,03,28,18,40,10.20
2011,03,28,18,42,10.20
2011,03,28,18,43,10.20
2011,03,28,18,44,10.20
2011,03,28,18,45,10.20
2011,03,28,18,46,10.20
2011,03,28,18,47,10.20
2011,03,28,18,48,10.20
2011,03,28,18,49,10.20
2011,03,28,18,50,10.20
2011,03,28,18,51,10.20
2011,03,28,18,52,10.20
2011,03,28,18,53,10.20
2011,03,28,18,54,10.20
2011,03,28,18,55,10.10
2011,03,28,18,56,10.10
2011,03,28,18,58,10.10
2011,03,28,18,59,10.10
2011,03,28,19,00,10.10
2011,03,28,19,01,10.10
2011,03,28,19,02,10.10
2011,03,28,19,03,10.10
2011,03,28,19,04,10.00
2011,03,28,19,05,10.00
2011,03,28,19,06,10.00
2011,03,28,19,07,9.90
2011,03,28,19,08,9.90
2011,03,28,19,09,9.90
2011,03,28,19,11,9.90
2011,03,28,19,12,9.80
2011,03,28,19,13,9.80
2011,03,28,19,14,9.80
2011,03,28,19,15,9.80
2011,03,28,19,16,9.80
2011,03,28,19,17,9.70
2011,03,28,19,18,9.70
2011,03,28,19,20,9.70
2011,03,28,19,21,9.70
2011,03,28,19,22,9.70
2011,03,28,19,23,9.70
2011,03,28,19,24,9.70
2011,03,28,19,26,9.70
2011,03,28,19,27,9.70
2011,03,28,19,28,9.70
2011,03,28,19,29,9.70
2011,03,28,19,30,9.70
2011,03,28,19,31,9.70
2011,03,28,19,32,9.70
2011,03,28,19,33,9.60
2011,03,28,19,34,9.60
2011,03,28,19,35,9.60
2011,03,28,19,36,9.60
2011,03,28,19,37,9.50
2011,03,28,19,38,9.50
2011,03,28,19,40,9.40
2011,03,28,19,41,9.40
2011,03,28,19,42,9.40
2011,03,28,19,43,9.40
2011,03,28,19,45,9.40
2011,03,28,19,46,9.40
2011,03,28,19,47,9.40
2011,03,28,19,48,9.30
2011,03,28,19,50,9.30
2011,03,28,19,51,9.30
2011,03,28,19,52,9.30
2011,03,28,19,53,9.30
2011,03,28,19,54,9.30
2011,03,28,19,55,9.30
2011,03,28,19,56,9.30
2011,03,28,19,57,9.30
2011,03,28,19,58,9.30
2011,03,28,19,59,9.30
2011,03,28,20,00,9.30
2011,03,28,20,01,9.30
2011,03,28,20,02,9.30
2011,03,28,20,03,9.30
2011,03,28,20,04,9.30
2011,03,28,20,05,9.30
2011,03,28,20,06,9.30
2011,03,28,20,07,9.30
2011,03,28,20,08,9.30
2011,03,28,20,09,9.30
2011,03,28,20,10,9.30
2011,03,28,20,11,9.30
2011,03,28,20,12,9.30
2011,03,28,20,13,9.40
2011,03,28,20,15,9.40
2011,03,28,20,16,9.40
2011,03,28,20,17,9.40
2011,03,28,20,18,9.40
2011,03,28,20,19,9.40
2011,03,28,20,20,9.40
2011,03,28,20,21,9.40
2011,03,28,20,22,9.40
2011,03,28,20,24,9.40
2011,03,28,20,25,9.30
2011,03,28,20,26,9.30
2011,03,28,20,28,9.20
2011,03,28,20,29,9.20
2011,03,28,20,30,9.20
2011,03,28,20,31,9.20
2011,03,28,20,33,9.20
2011,03,28,20,34,9.10
2011,03,28,20,35,9.10
2011,03,28,20,36,9.10